Weather History for Mayport NS, FL

Change the Weather History Date:

Monday, June 17, 2013

  Actual Average Record
Temperature  
Mean Temperature 80 °F -  
Max Temperature 86 °F 85 °F 100 °F (1998)
Min Temperature 75 °F 72 °F 72 °F (1997)
Cooling Degree Days 14    
Growing Degree Days 30 (Base 50)    
Moisture  
Dew Point 75 °F    
Average Humidity 83    
Maximum Humidity 94    
Minimum Humidity 72    
Precipitation  
Precipitation 0.00 in - - ()
Sea Level Pressure  
Sea Level Pressure 30.04 in    
Wind  
Wind Speed 7 mph (SSE)    
Max Wind Speed 15 mph    
Max Gust Speed 23 mph    
Visibility 10 miles    
Events      
Averages and records for this station are not official NWS values.
T = Trace of Precipitation, MM = Missing Value Source: NWS Daily Summary

Daily Weather History Graph

Daily Weather History Graph

Search for Another Location

Airport:

Trip Planner

Search our weather history database for the weather conditions in past years. The results will help you decide how hot, cold, wet, or windy it might be!

Date:

Astronomy

Jun. 17, 2013 Rise Set
Actual Time 6:23 AM EDT 8:29 PM EDT
Civil Twilight 5:55 AM EDT 8:57 PM EDT
Nautical Twilight 5:22 AM EDT 9:31 PM EDT
Astronomical Twilight 4:46 AM EDT 10:07 PM EDT
Moon 2:27 PM EDT (6/17) 1:35 AM EDT (6/17)
Length of Visible Light 15h 01m
Length of Day
14h 06m
First Quarter, 60% of the Moon is Illuminated
Jun 17
First Quarter
Jun 23
Full
Jun 30
Last Quarter
Jul 8
New
Jul 15
First Quarter

Hourly Weather History & Observations

Time (EDT) Temp. Heat Index Dew Point Humidity Pressure Visibility Wind Dir Wind Speed Gust Speed Precip Events Conditions
12:52 AM 77.0 °F - 73.0 °F 88% 30.09 in 10.0 mi South 4.6 mph - N/A   Overcast
1:52 AM 75.9 °F - 73.0 °F 91% 30.08 in 10.0 mi South 5.8 mph - N/A   Scattered Clouds
2:52 AM 75.9 °F - 73.0 °F 91% 30.06 in 10.0 mi South 6.9 mph - N/A   Mostly Cloudy
3:52 AM 78.1 °F - 73.9 °F 87% 30.04 in 10.0 mi SSE 8.1 mph - N/A   Overcast
4:52 AM 78.1 °F - 73.9 °F 87% 30.05 in 10.0 mi South 5.8 mph - N/A   Overcast
5:52 AM 77.0 °F - 73.9 °F 90% 30.06 in 10.0 mi SSW 3.5 mph - N/A   Overcast
6:00 AM 77.0 °F - 73.4 °F 89% 30.06 in 10.0 mi South 3.5 mph - N/A   Mostly Cloudy
6:52 AM 77.0 °F - 75.0 °F 94% 30.06 in 10.0 mi Calm Calm - N/A   Mostly Cloudy
7:52 AM 79.0 °F - 75.9 °F 90% 30.08 in 10.0 mi Calm Calm - N/A   Mostly Cloudy
8:52 AM 81.0 °F 86.7 °F 75.0 °F 82% 30.07 in 10.0 mi SE 6.9 mph - N/A   Mostly Cloudy
9:52 AM 82.0 °F 88.6 °F 75.0 °F 79% 30.06 in 10.0 mi South 5.8 mph - N/A   Mostly Cloudy
10:52 AM 84.0 °F 91.2 °F 73.9 °F 72% 30.06 in 10.0 mi SE 5.8 mph - N/A   Mostly Cloudy
11:52 AM 82.9 °F 90.8 °F 75.9 °F 79% 30.05 in 10.0 mi ESE 10.4 mph - N/A   Scattered Clouds
12:52 PM 84.9 °F 93.3 °F 75.0 °F 72% 30.05 in 10.0 mi ESE 8.1 mph - N/A   Scattered Clouds
1:52 PM 84.9 °F 94.1 °F 75.9 °F 74% 30.04 in 10.0 mi SE 10.4 mph - N/A   Scattered Clouds
2:52 PM 84.9 °F 95.3 °F 77.0 °F 77% 30.03 in 10.0 mi SE 15.0 mph - N/A   Scattered Clouds
3:52 PM 84.0 °F 92.6 °F 75.9 °F 76% 30.01 in 10.0 mi SE 11.5 mph - N/A   Mostly Cloudy
4:52 PM 84.0 °F 93.7 °F 77.0 °F 79% 29.99 in 10.0 mi SE 15.0 mph - N/A   Mostly Cloudy
5:52 PM 82.9 °F 90.2 °F 75.0 °F 77% 29.99 in 10.0 mi SE 13.8 mph 23.0 mph N/A   Mostly Cloudy
6:52 PM 82.0 °F 88.6 °F 75.0 °F 79% 29.99 in 10.0 mi SSE 15.0 mph - N/A   Mostly Cloudy
7:52 PM 82.0 °F 88.6 °F 75.0 °F 79% 29.98 in 10.0 mi SSE 12.7 mph - N/A   Mostly Cloudy
8:52 PM 80.1 °F 85.4 °F 75.9 °F 87% 30.00 in 10.0 mi South 6.9 mph - N/A   Mostly Cloudy
9:52 PM 80.1 °F 85.1 °F 75.0 °F 85% 30.01 in 10.0 mi South 9.2 mph - N/A   Scattered Clouds
10:52 PM 79.0 °F - 73.9 °F 84% 30.03 in 10.0 mi South 8.1 mph - N/A   Scattered Clouds
11:52 PM 77.0 °F - 73.9 °F 90% 30.03 in 10.0 mi South 5.8 mph - N/A   Scattered Clouds